Regional Weather Roundup
Issued by NWS

Home | Current Version | Previous Version | Graphics & Text | Print | Product List | Glossary On
Versions: 1 2 3 4 5 6 7 8 9 10 11 12 13 14 15 16 17 18 19 20 21 22 23 24 25 26 27 28 29 30 31 32 33 34 35 36 37 38 39 40 41 42 43 44 45 46 47 48 49 50
000
ASUS43 KIND 241409
RWRIN

WEATHER ROUNDUP FOR INDIANA
NATIONAL WEATHER SERVICE INDIANAPOLIS IN
1000 AM EDT TUE MAY 24 2016

NOTE: "FAIR" INDICATES FEW OR NO CLOUDS BELOW 12,000 FEET WITH NO
SIGNIFICANT WEATHER AND/OR OBSTRUCTIONS TO VISIBILITY.

* - STATION DOES NOT REPORT WEATHER SUCH AS PRECIPITATION OR FOG.

+ - STATION NOT QUALITY CONTROLLED BY THE NATIONAL WEATHER SERVICE.
    USE DATA WITH CAUTION...ESPECIALLY DEWPOINT AND RELATIVE
    HUMIDITY OBSERVATIONS.

INZ001>003-010>013-019-020-241500-
NORTHWEST INDIANA

CITY           SKY/WX    TMP DP  RH WIND       PRES   REMARKS
GARY /AIRPORT/ MOSUNNY   72  57  60 S9        30.03S
KNOX *+        MOSUNNY   70  34  26 SW9       30.05S
LA PORTE +     SUNNY     73  49  43 SW9       30.05S
MICHIGAN CITY+ MOSUNNY   70  50  49 S8        30.04S
MONTICELLO +   MOSUNNY   72  40  31 SW9       30.05S HAZE
RENSSELAER +   SUNNY     73  43  33 SW10      30.05F
VALPARAISO     SUNNY     73  51  46 SW7       30.04F

$$

LMZ046-743>745-241500-
SOUTHERN LAKE MICHIGAN

STATION/POSITION TIME  TEMP    WIND        PRES    WAVE
                       AIR SEA DIR/SP/G            HT
                 (UTC) (F)     (DEG/KT/KT) (MB)    (FT)
BURNS HARBOR     1300   68     190/ 11/ 15 1016.9R
MICHIGAN CITY    1300   69     180/  7/  8   N/A
5NW MICH CITY    1400   62 56  190/  4/  4   N/A     1

$$

INZ004-005-014>016-021>024-241500-
NORTH CENTRAL INDIANA

CITY           SKY/WX    TMP DP  RH WIND       PRES   REMARKS
ELKHART        CLOUDY    73  55  53 MISG      30.05S
GOSHEN         SUNNY     72  47  40 SW12      30.06R
LOGANSPORT +   MOSUNNY   70  46  43 SW6       30.08R
PERU/GRISSOM   MOSUNNY   72  49  44 SW8       30.06S
ROCHESTER +    CLOUDY    72  46  40 SW6       30.07S
SOUTH BEND     CLOUDY    70  48  45 SW12      30.05R
WARSAW +       SUNNY     72  46  40 W10       30.07R

$$

INZ006>009-017-018-025>027-241500-
NORTHEAST INDIANA

CITY           SKY/WX    TMP DP  RH WIND       PRES   REMARKS
ANGOLA *+      SUNNY     73  64  73 SW6       30.06S
AUBURN +       SUNNY     70  45  40 SW5       30.08S
FORT WAYNE     MOSUNNY   72  47  40 SW10      30.08S
HUNTINGTON +   SUNNY     71  45  39 SW8       30.08R

$$

INZ028-029-035-036-043>045-051>053-241500-
WEST CENTRAL INDIANA

CITY           SKY/WX    TMP DP  RH WIND       PRES   REMARKS
CRAWFORDSVL +  SUNNY     70  49  47 S12       30.08S
GREENCASTLE +  SUNNY     70  55  60 S5        30.09S
LAFAYETTE      SUNNY     71  47  42 S7        30.06S
TERRE HAUTE    MOSUNNY   69  50  50 S7        30.08R

$$

INZ030>032-037>040-046>048-054>057-064-065-241500-
CENTRAL INDIANA

CITY           SKY/WX    TMP DP  RH WIND       PRES   REMARKS
ANDERSON       SUNNY     70  52  52 SW12      30.12R
CP ATTERBURY + SUNNY     70  54  56 S5        30.12R
COLUMBUS       SUNNY     68  55  64 S6        30.12R
FISHERS *+     SUNNY     70  52  52 SW8       30.09S
FRANKFORT +      N/A     74  25  16 SW9       30.09R
GREENWOOD *+   SUNNY     70  50  49 S7        30.11
INDIANAPOLIS   PTSUNNY   71  51  49 SW8       30.09R
-EAGLE CREEK   SUNNY     71  48  43 S6        30.08S
KOKOMO *+      SUNNY     72  48  43 SW12      30.08R
MARION +       SUNNY     71  47  41 SW10      30.09S
SHELBYVILLE    SUNNY     70  52  52 S9        30.10R
ZIONSVILLE +   SUNNY     71  49  45 S8        30.09F

$$

INZ033-034-041-042-049-050-058-059-241500-
EAST CENTRAL INDIANA

CITY           SKY/WX    TMP DP  RH WIND       PRES   REMARKS
MUNCIE         SUNNY     73  49  42 SW7       30.10R

$$

INZ060-061-067>069-081>083-085>088-241500-
SOUTHWEST INDIANA

CITY           SKY/WX    TMP DP  RH WIND       PRES   REMARKS
EVANSVILLE     CLOUDY    70  52  52 S5        30.09R
HUNTINGBURG *+ SUNNY     72  52  49 S6        30.10S
WASHINGTON +   MOSUNNY   69  53  57 S9        30.08S

$$

INZ062-063-066-070>080-084-089>092-241500-
SOUTH CENTRAL AND SOUTHEAST INDIANA

CITY           SKY/WX    TMP DP  RH WIND       PRES   REMARKS
BEDFORD +      SUNNY     68  61  77 S6        30.11
BLOOMINGTON    SUNNY     68  52  56 SE6       30.10R
MADISON *+     SUNNY     70  52  52 CALM      30.14S
NORTH VERNON + SUNNY     72  59  64 CALM      30.13R
SEYMOUR +      SUNNY     72  54  53 S6        30.11S

$$





USA.gov is the U.S. government's official web portal to all federal, state and local government web resources and services.